TimeEDT,TemperatureF,Dew PointF,Humidity,Sea Level PressureIn,VisibilityMPH,Wind Direction,Wind SpeedMPH,Gust SpeedMPH,PrecipitationIn,Events,Conditions,WindDirDegrees,DateUTC
12:00 AM,57.2,50.0,77,29.87,15.0,NE,4.6,-,N/A,,Overcast,40,2012-10-02 04:00:00
12:24 AM,-9999,-9999,N/A,-9999,15.0,NE,5.8,-,N/A,Rain,Light Rain,40,2012-10-02 04:24:00
1:00 AM,57.2,51.8,82,29.86,12.0,ENE,4.6,-,N/A,Rain,Light Rain,60,2012-10-02 05:00:00
2:00 AM,56,53,86,29.84,12,ENE,5.8,,,Rain,Light Rain,60,2012-10-02 06:00:00
2:00 AM,57.2,53.6,88,29.84,12.0,ENE,6.9,-,N/A,Rain,Light Rain,60,2012-10-02 06:00:00
3:00 AM,55.4,53.6,94,29.84,15.0,NE,3.5,-,N/A,,Overcast,40,2012-10-02 07:00:00
4:00 AM,57.2,55.4,94,29.83,15.0,East,5.8,-,N/A,,Overcast,90,2012-10-02 08:00:00
5:00 AM,55.4,53.6,94,29.83,10.0,NNE,5.8,-,N/A,Rain,Light Rain,20,2012-10-02 09:00:00
6:00 AM,57.2,55.4,94,29.83,10.0,NE,6.9,-,N/A,Rain,Light Rain,50,2012-10-02 10:00:00
7:00 AM,57.2,55.4,94,29.85,10.0,NE,5.8,-,N/A,,Overcast,50,2012-10-02 11:00:00
7:43 AM,-9999,-9999,N/A,-9999,3.0,NE,4.6,-,N/A,Rain,Light Rain Showers,40,2012-10-02 11:43:00
8:00 AM,56,55,95,29.87,3,NNE,4.6,,,Rain,Light Rain Showers,20,2012-10-02 12:00:00
8:00 AM,57.2,55.4,94,29.87,3.0,North,4.6,-,N/A,Rain,Light Rain Showers,10,2012-10-02 12:00:00
9:00 AM,57.2,55.4,94,29.88,15.0,North,5.8,-,N/A,,Overcast,10,2012-10-02 13:00:00
10:00 AM,59.0,53.6,82,29.88,15.0,NNE,10.4,-,N/A,,Mostly Cloudy,30,2012-10-02 14:00:00
11:00 AM,59.0,55.4,88,29.89,15.0,ENE,9.2,-,N/A,,Overcast,60,2012-10-02 15:00:00
12:00 PM,60.8,55.4,82,29.88,15.0,NE,11.5,-,N/A,,Mostly Cloudy,50,2012-10-02 16:00:00
1:00 PM,64.4,57.2,77,29.88,15.0,NE,12.7,-,N/A,,Mostly Cloudy,50,2012-10-02 17:00:00
2:00 PM,65,56,65,29.86,15,NE,12.7,,,,Partly Cloudy,40,2012-10-02 18:00:00
2:00 PM,64.4,55.4,73,29.86,15.0,NE,15.0,-,N/A,,Mostly Cloudy,40,2012-10-02 18:00:00
3:00 PM,66.2,55.4,68,29.85,15.0,NE,10.4,17.3,N/A,,Mostly Cloudy,50,2012-10-02 19:00:00
4:00 PM,66.2,55.4,68,29.86,15.0,ENE,8.1,-,N/A,,Mostly Cloudy,60,2012-10-02 20:00:00
5:00 PM,66.2,57.2,73,29.86,15.0,ENE,9.2,-,N/A,,Scattered Clouds,70,2012-10-02 21:00:00
6:00 PM,68.0,57.2,68,29.86,15.0,ENE,6.9,-,N/A,,Partly Cloudy,70,2012-10-02 22:00:00
7:00 PM,64.4,57.2,77,29.88,15.0,NE,8.1,-,N/A,,Partly Cloudy,50,2012-10-02 23:00:00
8:00 PM,63,58,80,29.88,15,ENE,5.8,,,,Scattered Clouds,70,2012-10-03 00:00:00
8:00 PM,62.6,59.0,88,29.88,15.0,ENE,4.6,-,N/A,,Mostly Cloudy,70,2012-10-03 00:00:00
9:00 PM,64.4,59.0,83,29.90,15.0,NNE,4.6,-,N/A,,Mostly Cloudy,20,2012-10-03 01:00:00
9:23 PM,-9999,-9999,N/A,-9999,10.0,NE,8.1,-,N/A,Rain,Light Rain Showers,50,2012-10-03 01:23:00
9:49 PM,-9999,-9999,N/A,-9999,15.0,NE,6.9,-,N/A,,Mostly Cloudy,40,2012-10-03 01:49:00
10:00 PM,60.8,57.2,88,29.91,15.0,NE,8.1,-,N/A,,Mostly Cloudy,50,2012-10-03 02:00:00
11:00 PM,60.8,57.2,88,29.92,15.0,NE,8.1,-,N/A,,Overcast,40,2012-10-03 03:00:00
11:32 PM,-9999,-9999,N/A,-9999,6.0,NNE,9.2,-,N/A,,Light Drizzle,20,2012-10-03 03:32:00